Location: Quedlinburg
(51.7921°N, 11.1414°E)
Time: 09:05:03
(UTC+02:00)

RS-44 - Pass Details

Date: 16 March 2026
Orbit: 1175 x 1510 km, 82.5° (Epoch: 17 April)

Event Time Altitude Azimuth Distance (km) Brightness Sun altitude
Rises 23:14:41 0° 347° (NNW) 4,348 ? -37.6°
Reaches altitude 10° 23:20:33 10° 21° (NNE) 3,465 ? -37.9°
Maximum altitude 23:22:49 11° 37° (NE) 3,404 ? -38.0°
Drops below altitude 10° 23:25:07 10° 53° (NE) 3,529 ? -38.2°
Enters shadow 23:29:53 - 80° (E) 4,278 ? -38.4°
